Home > Weather > Öhringen > Past weeks

Flag for Germany Weather for the Past 2 Weeks in Öhringen, Baden-Württemberg, Germany

Now
36 °F

Light rain. Mostly cloudy.


Feels Like: 29 °F
Forecast: 32 / 42 °F
Wind: 9 mph from Southwest

Location: Niederstetten

Current Time: Feb 11, 2016 at 2:53:19 PM

Latest Report: Feb 11, 2016 at 2:20 PM


Visibility: N/A

Pressure: 29.68 "Hg

Humidity: 93%

Dew point: 34 °F

Location of ÖhringenLocation

Historic Weather in Öhringen — Graph

°F

Öhringen Temperature Yesterday

Maximum temperature yesterday: 37 °F (at 12:20 AM)
Minimum temperature yesterday: 32 °F (at 8:20 AM)
Average temperature yesterday: 34 °F

High & Low Weather Summary for the Past Weeks

 TemperatureHumidityPressure
High54 °F (Jan 27, 1:20 PM)100% (Jan 28, 10:20 PM)30.39 "Hg (Jan 28, 10:20 PM)
Low30 °F (Feb 3, 7:20 PM)54% (Jan 27, 2:20 PM)29.12 "Hg (Feb 9, 5:20 PM)
Average41 °F84%29.93 "Hg
* Reported Jan 27 1:20 PM — Feb 11 1:20 PM, Öhringen, Weather by CustomWeather, © 2016

Note: Actual official high and low records may vary slightly from our data, if they occured in-between our weather recording intervals... More about our weather records

Advertising

Öhringen Weather History for the Previous 24 Hours

 ConditionsComfort  
Time TempWeatherWind HumidityBarometerVisibility
1:20 PM
Thu, Feb 11
36 °FLight rain. Mostly cloudy.14 mph93%29.71 "HgN/A
12:20 PM36 °FLight rain. Mostly cloudy.15 mph87%29.71 "HgN/A
11:20 AM36 °FMostly cloudy.15 mph87%29.71 "HgN/A
10:20 AM34 °FLight snow. Mostly cloudy.14 mph93%29.71 "Hg5 mi
9:49 AM34 °FLight snow. Mostly cloudy.15 mph93%29.71 "Hg5 mi
9:20 AM34 °FLight snow. Mostly cloudy.14 mph93%29.71 "Hg3 mi
9:02 AM34 °FLight snow. Mostly cloudy.16 mph93%29.71 "Hg4 mi
8:20 AM34 °FLight snow. Partly sunny.13 mph93%29.68 "Hg3 mi
7:47 AM34 °FLow clouds.14 mph93%29.68 "Hg4 mi
7:20 AM34 °FLow clouds.14 mph93%29.68 "HgN/A
6:20 AM34 °FLight rain. Low clouds.15 mph93%29.65 "Hg5 mi
5:20 AM34 °FLight snow. Low clouds.14 mph93%29.65 "Hg5 mi
4:20 AM34 °FLight snow. Low clouds.15 mph93%29.65 "HgN/A
3:20 AM34 °FLight snow. Low clouds.17 mph93%29.62 "HgN/A
2:50 AM34 °FLight snow. Low clouds.17 mph93%29.62 "HgN/A
2:20 AM34 °FLight snow. Low clouds.18 mph93%29.59 "Hg4 mi
1:20 AM34 °FLight snow. Low clouds.21 mph93%29.59 "HgN/A
12:20 AM34 °FLight snow. Low clouds.21 mph93%29.56 "HgN/A
11:50 PM
Wed, Feb 10
34 °FLight snow. Mostly cloudy.21 mph93%29.56 "Hg4 mi
11:20 PM32 °FSnow. Low clouds.18 mph100%29.56 "Hg2 mi
10:50 PM32 °FLight snow. Mostly cloudy.20 mph100%29.56 "Hg3 mi
10:20 PM32 °FSnow. Low clouds.15 mph100%29.56 "Hg1 mi
9:20 PM32 °FSnow. Low clouds.21 mph100%29.53 "Hg1 mi
8:50 PM34 °FLight snow. Low clouds.20 mph93%29.53 "Hg2 mi
8:20 PM36 °FLight rain. Low clouds.21 mph87%29.50 "Hg4 mi
7:50 PM36 °FLight rain. Low clouds.21 mph87%29.50 "Hg4 mi
7:20 PM36 °FLight rain. Passing clouds.21 mph87%29.50 "Hg5 mi
6:20 PM34 °FLight rain. Passing clouds.23 mph93%29.47 "Hg5 mi
5:20 PM34 °FLight snow. Partly sunny.23 mph93%29.45 "HgN/A
5:00 PM34 °FLight snow. Low clouds.23 mph93%29.45 "HgN/A
4:20 PM34 °FSnow. Low clouds.21 mph93%29.45 "Hg1 mi
3:20 PM36 °FSnow. Partly sunny.25 mph81%29.42 "Hg2 mi
2:20 PM36 °FLight snow. Partly sunny.24 mph87%29.42 "HgN/A
Weather by CustomWeather, © 2016

See weather overviewHow to use our weather pages